RH
2 2 2 2 3 5 17 42 54 52 53 30 42 56 74 89 75 68 71 72 75 66 66 49 57 94 96 93 84 81 86 93 83 61 88 95 95 96 96 95 96 92 90 86
2 2 3 3 6 23 43 45 45 57 64 58 60 63 64 65 68 91 90 75 75 68 72 60 64 75 85 68 49 61 91 94 68 47 97 97 94 94 92 94 93 96 95 75
2 3 3 5 25 44 52 38 55 48 64 80 88 76 77 73 67 73 79 79 88 84 69 68 69 58 52 42 43 78 78 77 81 67 54 78 83 78 89 90 95 88 78 69
3 4 4 17 68 56 49 35 59 64 74 73 75 87 91 71 90 79 72 84 78 87 94 81 69 79 64 48 49 50 61 69 60 81 65 42 34 45 82 79 77 73 62 44
4 5 7 52 74 64 43 51 64 66 86 100 78 77 79 89 83 85 90 98 86 87 91 91 92 75 82 65 60 74 66 50 66 53 34 56 51 54 73 54 44 53 36 33
5 5 6 92 70 70 42 28 49 72 74 83 80 95 96 96 96 91 98 95 95 91 100 90 81 74 64 72 89 90 96 79 78 70 50 72 86 83 79 78 65 58 55 31
6 5 7 49 58 68 40 29 50 77 72 76 93 89 83 71 78 88 80 96 74 74 78 68 61 66 81 100 96 100 99 99 99 99 87 100 100 100 97 81 56 82 75 68
6 6 6 7 40 48 29 31 64 62 61 72 86 85 79 69 69 72 74 69 65 65 63 61 62 79 91 98 99 92 95 94 96 97 95 95 96 96 91 92 50 57 52 42
8 6 6 10 19 34 29 33 45 42 48 81 87 92 90 82 73 62 65 64 91 73 75 76 85 94 97 95 76 78 52 62 66 70 98 87 100 98 81 70 75 72 73 52
8 7 6 10 16 26 38 44 47 51 63 96 100 94 98 95 92 93 88 61 77 78 76 94 98 97 95 93 96 98 61 70 74 87 88 99 98 90 64 74 75 56 54 52
8 7 7 11 13 23 42 40 40 57 74 88 93 100 87 74 96 99 99 80 89 79 84 98 99 83 100 96 100 100 100 96 98 91 96 92 83 73 99 100 86 92 86 75
9 8 8 8 11 17 42 34 38 57 87 97 99 81 68 90 99 100 100 95 83 97 99 97 78 89 82 81 94 92 98 100 100 100 100 100 100 100 100 100 100 100 100 87
9 10 10 10 9 11 26 30 53 64 100 97 70 52 60 68 84 100 100 99 93 93 95 81 82 93 90 92 100 98 100 100 100 98 100 100 100 100 100 100 100 100 100 98
10 11 12 12 11 11 13 19 41 67 83 84 72 59 52 83 94 96 95 90 98 92 94 80 72 81 76 87 92 83 100 98 90 91 93 82 96 100 100 100 100 100 99 98
11 11 12 15 14 12 12 13 25 61 89 93 69 72 64 57 76 92 96 96 94 100 72 67 75 76 74 74 77 85 99 96 95 100 100 100 100 100 100 100 99 99 99 97
14 14 14 14 15 14 13 13 21 57 87 79 83 84 80 73 65 67 77 90 90 71 65 77 96 97 81 89 100 100 100 100 100 100 100 100 100 100 100 99 100 100 100 98
12 12 15 14 17 16 15 17 19 39 72 76 80 99 100 91 79 79 79 74 69 62 68 88 88 82 75 86 99 100 100 100 100 99 97 94 95 96 99 100 100 100 100 99
16 16 14 16 18 18 17 18 19 22 45 74 87 92 100 100 98 89 84 75 69 72 75 80 86 82 84 99 100 100 100 100 77 63 69 74 81 96 99 99 99 98 97 98
15 16 14 17 21 19 21 20 20 22 27 47 63 87 96 99 100 100 100 93 81 80 82 87 92 91 94 100 99 94 89 86 70 57 47 40 35 31 32 63 96 98 98 98
14 16 15 19 21 24 24 24 23 21 27 47 56 71 96 100 99 100 100 98 96 91 91 82 85 100 100 100 98 94 80 66 54 42 33 31 32 30 27 23 21 35 87 97
15 16 18 23 27 28 29 27 25 24 29 44 60 61 95 99 96 91 93 100 100 81 98 97 92 97 100 100 100 97 82 72 67 61 54 47 40 33 27 24 21 19 18 19
15 18 22 28 30 35 33 30 27 27 28 41 53 56 88 97 97 100 100 100 96 91 90 95 91 89 88 88 89 82 71 67 62 54 45 39 33 28 26 24 23 21 18 16
17 20 26 36 30 37 41 30 29 27 25 27 41 56 67 90 93 93 93 85 88 89 88 84 84 93 97 94 85 75 71 61 47 41 38 35 31 30 25 23 25 23 21 19
19 25 30 31 47 46 39 30 26 27 26 26 28 45 53 70 85 83 89 80 84 83 84 75 87 86 86 82 82 73 58 52 50 45 37 34 30 28 28 27 25 24 23 21
19 32 35 49 48 47 44 38 34 38 38 30 28 33 40 47 59 53 62 65 68 68 68 73 77 81 78 69 64 64 62 62 63 61 58 49 27 20 19 19 19 19 19 22
14 25 40 34 41 43 45 41 38 34 36 33 31 31 33 36 34 37 37 46 50 64 77 82 78 70 70 70 71 68 67 65 65 67 66 64 50 29 25 24 23 20 18 18
9 18 24 30 36 28 25 27 32 34 34 31 35 40 38 40 41 46 50 60 63 65 70 73 75 75 74 75 76 75 74 73 73 69 68 66 64 49 30 29 31 29 28 27
Wind_Speed
44 46 45 42 40 37 34 25 17 19 13 7 17 15 10 7 10 9 10 7 8 10 8 9 5 6 11 12 12 12 14 7 6 12 12 4 8 16 8 5 4 5 2 6
45 43 39 36 33 32 32 25 22 15 23 22 18 10 8 6 10 10 10 11 9 7 8 6 6 6 6 11 11 8 8 3 5 5 1 11 7 15 18 9 5 3 0 9
42 38 33 31 29 29 28 28 23 20 20 20 14 9 8 10 9 8 11 11 10 10 10 10 9 15 13 14 13 8 7 5 4 4 7 12 13 17 12 11 8 9 22 24
37 31 29 28 28 28 27 25 21 20 19 16 19 16 14 15 16 14 13 9 12 13 14 17 14 9 12 11 11 10 9 10 12 8 10 13 16 16 13 11 15 12 32 37
33 26 27 28 27 27 27 25 23 17 14 14 16 18 21 19 17 12 13 14 14 13 14 14 18 14 12 11 8 9 9 12 14 18 17 18 21 19 18 18 21 23 28 46
28 25 26 26 26 27 26 24 20 17 14 14 17 19 18 18 18 11 11 14 15 11 12 10 11 11 10 11 13 13 14 12 6 14 12 8 7 11 11 13 16 20 26 34
25 24 27 25 23 24 23 23 18 14 13 15 15 14 17 18 13 11 14 9 15 13 11 9 8 6 4 4 6 7 12 9 9 6 12 4 13 6 9 18 17 19 23 30
23 24 25 26 23 22 19 20 15 14 13 13 11 15 18 19 17 15 14 19 14 11 10 10 7 10 12 12 11 10 12 6 4 2 1 7 1 15 21 21 29 26 29 32
21 23 25 25 24 21 19 18 13 13 12 13 14 16 20 27 27 25 20 13 9 11 10 8 8 7 7 6 6 10 13 6 2 3 2 2 12 24 17 22 31 23 29 38
17 20 23 23 26 23 20 18 15 13 8 8 13 17 22 30 29 23 16 7 1 9 9 10 8 8 6 9 13 20 23 14 19 12 3 0 10 28 26 7 19 31 38 42
12 18 20 22 27 25 21 20 17 14 8 5 13 18 24 26 21 23 17 3 3 3 7 4 5 13 9 9 19 11 17 10 10 12 7 7 24 27 22 26 35 39 44 47
11 16 21 23 26 27 22 24 19 13 5 10 14 24 28 23 20 17 11 3 3 5 5 5 8 15 16 15 9 20 14 12 7 6 8 10 15 18 17 21 28 31 35 43
9 13 20 25 24 27 23 26 17 11 8 8 15 24 25 19 21 10 6 12 9 6 8 11 14 18 13 11 22 19 23 19 19 10 18 18 22 19 17 18 21 21 20 13
4 9 15 21 24 24 24 24 19 13 4 12 21 28 33 28 27 19 16 13 14 10 8 10 22 24 22 25 23 25 18 24 21 22 23 20 22 25 26 23 18 16 12 10
4 8 13 15 19 22 22 24 22 15 8 7 16 22 32 34 27 17 15 12 10 8 12 29 33 29 26 25 23 24 22 22 23 22 21 23 26 26 27 28 27 23 16 8
4 7 13 12 16 19 18 23 24 16 7 6 8 19 24 27 29 28 25 18 11 14 19 22 20 15 13 19 25 18 21 21 22 23 22 23 23 25 26 28 30 29 25 17
4 6 8 13 14 16 16 19 20 16 9 4 3 7 16 19 23 23 20 15 16 17 25 28 27 24 27 27 25 20 20 23 23 26 26 27 27 28 27 28 27 28 28 28
4 4 8 10 12 13 14 17 19 22 10 7 7 3 6 8 10 13 13 10 11 15 19 18 16 18 20 20 18 18 19 18 21 23 25 25 25 27 30 29 27 27 28 30
3 4 7 8 8 10 11 12 17 17 20 13 13 10 6 4 8 2 7 7 11 13 14 12 10 17 11 16 17 20 22 24 24 23 22 21 23 24 24 27 30 29 28 27
5 3 5 7 8 8 10 11 10 17 20 20 20 14 8 6 5 5 3 5 5 2 4 5 12 15 12 12 15 18 20 22 22 20 19 21 23 25 26 26 25 24 27 26
6 5 5 6 6 7 6 11 9 14 11 19 18 16 8 6 3 6 5 3 3 1 3 3 1 4 8 11 15 18 21 23 25 27 27 27 28 26 23 22 21 20 19 16
6 5 4 5 6 5 5 9 9 8 12 17 14 15 10 6 4 4 4 3 3 1 2 2 2 5 9 12 15 19 21 24 25 27 26 26 26 25 24 23 21 20 18 15
5 3 3 3 5 7 6 8 10 11 17 19 15 12 10 5 5 3 3 2 2 4 3 3 4 9 14 17 19 22 25 27 28 28 29 29 27 26 26 24 23 20 19 18
3 2 4 4 5 6 7 10 11 13 15 17 16 12 8 8 3 3 2 3 3 2 3 2 9 14 17 20 24 27 28 29 30 30 29 29 28 28 27 25 24 24 22 20
2 3 3 6 5 6 8 9 11 13 14 14 14 10 6 7 3 4 4 4 3 2 5 12 15 18 22 24 26 27 27 27 27 28 28 27 26 24 23 24 24 23 22 22
4 5 4 4 5 7 9 10 11 12 13 13 12 7 5 4 4 4 3 7 3 11 16 19 21 22 23 24 24 25 27 28 28 28 28 27 26 24 23 22 22 22 22 21
5 4 5 6 7 8 8 8 10 11 12 12 8 5 3 6 4 6 6 11 17 17 18 18 20 21 22 23 24 25 26 26 27 28 28 27 26 24 24 22 21 21 21 21
Wind_Direction
345 346 348 350 352 356 4 19 41 38 32 30 42 30 36 19 0 34 56 49 32 20 355 332 340 24 19 22 16 8 355 341 351 308 329 331 92 55 71 83 345 194 228 170
350 351 353 355 358 2 10 18 25 0 5 35 25 22 35 27 6 16 360 356 348 331 332 336 330 310 350 336 343 356 339 334 355 336 160 156 34 2 359 16 341 74 9 184
354 354 355 359 4 9 10 10 13 21 23 21 10 358 360 4 352 333 319 339 324 318 306 304 290 295 296 291 300 320 299 282 256 227 282 307 310 317 313 315 298 310 272 269
356 355 357 2 8 5 3 9 11 10 359 15 12 17 355 351 350 342 346 329 329 327 316 309 305 299 293 284 278 279 290 291 285 283 286 290 297 298 295 279 277 274 280 296
356 359 1 4 2 1 2 5 6 14 18 356 16 17 9 6 353 0 350 338 331 326 309 298 295 295 298 290 282 274 271 270 281 280 267 283 294 300 296 292 289 279 286 285
0 3 360 4 357 355 4 7 7 14 22 16 17 12 9 12 0 7 356 342 338 349 330 324 317 297 297 288 291 293 287 273 268 270 281 289 284 311 300 282 263 263 266 280
360 2 1 6 357 350 358 1 7 15 21 24 18 25 17 11 2 351 352 6 348 342 344 343 348 3 343 316 287 253 262 261 260 261 282 231 177 182 328 280 273 286 279 279
359 2 4 4 2 354 356 358 5 11 12 14 18 11 7 13 23 16 13 4 355 5 16 28 62 67 72 77 67 60 35 356 284 294 52 158 348 335 338 329 284 293 291 279
359 2 6 7 11 8 1 359 1 4 15 8 2 354 357 355 352 347 339 353 21 11 26 41 33 43 356 25 344 345 17 13 77 54 316 63 4 334 325 307 281 276 281 281
359 6 11 18 21 18 17 17 12 6 20 348 344 350 347 348 344 350 352 349 261 32 46 53 41 52 36 32 9 355 12 30 33 28 349 186 336 334 325 310 298 299 296 289
11 16 19 21 22 22 20 15 9 1 13 358 349 345 343 351 360 355 358 48 97 87 45 50 79 57 53 64 37 24 26 15 13 11 4 349 327 334 354 318 307 306 303 300
29 26 28 24 22 24 20 8 5 4 16 14 3 2 2 5 2 357 14 15 123 89 356 97 89 99 73 82 48 50 34 19 357 8 1 344 353 337 325 318 310 319 313 308
38 34 32 27 23 21 17 11 12 360 355 23 3 17 22 17 14 14 74 95 93 79 126 101 100 92 99 79 54 59 48 52 47 47 27 26 18 9 360 342 342 341 323 344
37 22 20 18 19 21 17 12 15 17 23 36 30 33 34 38 37 63 83 70 87 81 91 110 111 101 83 75 67 50 37 31 32 25 21 38 28 28 23 14 2 1 358 73
347 346 352 359 3 16 16 14 19 25 38 38 41 37 36 42 47 47 40 50 54 62 116 108 99 90 77 71 63 41 31 24 25 17 18 20 20 22 31 32 29 23 24 65
1 16 14 11 4 12 11 18 19 19 26 45 48 35 35 40 47 52 50 51 73 106 107 101 96 98 89 69 62 48 45 37 29 24 26 30 28 28 32 40 41 43 45 54
304 339 6 15 4 15 22 33 21 20 24 36 33 32 27 44 50 55 61 66 95 94 97 96 97 93 82 67 52 47 41 33 26 20 26 32 33 31 31 35 47 52 54 62
346 7 14 8 8 14 31 33 29 27 33 48 31 1 14 18 46 68 74 65 74 78 94 97 93 81 62 54 42 36 34 31 24 25 22 17 14 14 23 32 39 49 56 56
311 332 357 358 5 17 23 25 29 30 40 56 30 34 15 20 41 23 21 37 50 69 71 75 75 76 64 38 29 20 14 13 13 11 11 11 14 17 20 18 22 32 39 49
15 0 356 358 6 13 21 15 14 19 24 30 30 22 13 12 17 36 354 18 42 30 41 40 48 63 48 25 14 6 1 358 356 355 359 4 7 10 12 14 18 17 16 24
28 25 17 11 20 19 23 19 18 22 8 10 12 15 18 15 18 24 21 14 19 21 37 346 19 21 16 3 353 348 347 347 348 348 348 349 350 352 356 359 1 7 11 15
32 38 27 25 37 27 24 17 15 9 9 7 9 16 22 16 0 13 358 5 360 63 15 284 240 333 342 339 336 334 335 336 336 336 336 336 335 336 338 340 343 345 350 355
33 38 31 42 48 35 34 24 22 13 6 5 9 12 14 1 3 0 7 351 13 333 305 293 305 330 329 325 325 327 328 328 327 327 326 325 324 324 323 323 324 326 327 328
39 63 51 52 43 33 25 18 13 7 4 -0 0 6 7 13 18 16 351 345 334 300 298 313 321 318 319 321 323 323 324 325 325 324 323 321 319 318 315 313 312 311 311 308
58 67 63 52 41 27 11 4 358 355 356 355 352 353 356 5 11 3 352 334 306 308 314 314 312 313 316 321 322 323 325 327 328 328 329 328 324 320 315 312 309 305 303 302
57 65 69 40 21 11 0 350 347 352 356 355 354 344 344 334 346 344 316 325 296 309 314 315 317 320 324 326 326 327 328 327 328 329 329 328 326 322 318 314 311 309 306 302
40 58 40 20 1 349 347 356 2 2 357 358 355 332 314 317 308 322 310 310 311 312 314 317 319 324 327 328 328 328 329 331 330 329 328 327 325 321 317 315 311 308 306 303